Weather in Wisconsin Dells

United States     43°37′38″N   89°46′24″W
temp.,
°C
wind,
m/s
gust,
m/s
humid.,
%
clouds,
%
prec.,
mm/h
press.,
hPa
HPBL,
m
23 may, mon
mon2301:00+4nw11775 0.0 102910
04:00+4nw11808 0.0 103010
07:00+6n12735 0.0 103086
10:00+12ene33495 0.0 10291240
13:00+14e324399 0.0 10281884
16:00+14ese3244100 0.0 10261850
19:00+12ese3563100 0.0 1026297
22:00+8ese3463100 0.0 102667
24 may, tue
tue2401:00+6ese2280100 0.0 102525
04:00+5e2285100 0.0 102616
07:00+8ene2475100 0.0 1026169
10:00+13e455017 0.0 1025793
13:00+16ese3450100 0.0 10241388
16:00+17ese5556100 0.0 10221592
19:00+14e4772100 0.0 1022522
22:00+11e3972100 0.0 1023301
25 may, wed
wed2501:00+9e41276100 0.0 1022362
04:00+10ene51365100 0.0 1020437
07:00+11e71664100 0.0 1018630
10:00+8ene71892100 2.5 1016591
13:00+8ene81597100 15.2 1013743
16:00+11ene51199100 2.0 1009474
19:00+12ne4799100 2.5 1007222
22:00+11wnw4699100 0.1 1009339
26 may, thu
thu2601:00+9w3798100 0.1 1011370
04:00+9wnw3897100 0.0 1013383
07:00+9nw4895100 0.0 1013363
10:00+11nnw3486100 0.0 1014534
13:00+14nnw3373100 0.1 1014822
16:00+16nnw3366100 0.0 10121086
19:00+15n3575100 0.0 1013349
22:00+13nne3677100 0.0 1014223
27 may, fri
fri2701:00+12ne2680100 0.0 1013268
04:00+10ne3893100 0.0 1013274
07:00+10ne4986100 0.0 1014396
10:00+14nne5767100 0.0 1013882
13:00+18ne5757100 0.0 10131440
16:00+19ne575648 0.0 10121594
19:00+16e46740 0.0 1012490
22:00+11ene23910 0.0 101459